Find Cubesat-OSCAR-66

NORAD ID: 32791 Int'l Des: 2008-021 Owner: NIHON Country: J operational
又名: SEEDS spacetrack SEEDS II (CO-66) celestrak SEEDS II satnogs
LEOCIRCULARRETROGRADE

当前视图

正在加载3D地球...

About Cubesat-OSCAR-66

Cubesat-OSCAR-66 (NORAD 32791) is a satellite launched Apr 28, 2008 by NIHON of J. It operates in LEO, CIRCULAR, RETROGRADE orbit with a mass of 1.00 kg.

即将过境

Passes for default location (London). Set your location on the main map for personalized predictions.

高度历史

Loading altitude history...

两行轨道根数

1 32791U 08021J 26208.92036169 .00020623 00000-0 62704-3 0 9992
2 32791 97.7535 208.8069 0004293 133.7191 226.4407 15.34065834993539
Epoch: Jul 27, 2026 • Age: 15 hours

当前状态

高度 463.9 km
远地点 / 近地点 N/A
速度 7.64 km/s
星下点 23.18°N, 106.3°W
发射日期 Apr 28, 2008
运行时间 18.2 years
类型 other

技术详情

分类 Payload
质量 1.00 kg
干质量 1.00 kg
总质量 1.00 kg
长度 0.10 m
直径 0.10 m
跨度 0.10 m
形状 Box
制造商 NIHON
平台类型 Cubesat 1U
阶段状态 In Orbit
所有者/国家 NIHON/J

Most Searched